Regional Weather Roundup
Issued by NWS Cleveland, OH

Home | Current Version | Previous Version | Text Only | Print | Product List | Glossary Off
Versions: 1 2 3 4 5 6 7 8 9 10 11 12 13 14 15 16 17 18 19 20 21 22 23 24 25 26 27 28 29 30 31 32 33 34 35 36 37 38 39 40 41 42 43 44 45 46 47 48 49 50

000
ASUS41 KCLE 011810
RWRCLE
OHIO REGIONAL WEATHER ROUNDUP
NATIONAL WEATHER SERVICE CLEVELAND, OH
200 PM EDT WED JUL 01 2015

NOTE: "FAIR" INDICATES FEW OR NO CLOUDS BELOW 12,000 FEET WITH NO
SIGNIFICANT WEATHER AND/OR OBSTRUCTIONS TO VISIBILITY.

OHZ001>008-015>018-024>027-034-035-043-044-011900-
   NORTHWEST OHIO

CITY           SKY/WX    TMP DP  RH WIND       PRES   REMARKS
DEFIANCE       MOSUNNY   74  57  55 NW12      29.93F
FINDLAY        MOSUNNY   71  59  65 NW12      29.93S
TOLEDO EXPRESS PTSUNNY   70  56  61 W8        29.92S
TOLEDO EXEC    PTSUNNY   73  58  59 W9        29.92F
LIMA           MOSUNNY   72  58  61 NW13G18   29.94S
$$

OHZ009>014-019>023-028>033-038-089-011900-
   NORTHEAST OHIO

CITY           SKY/WX    TMP DP  RH WIND       PRES   REMARKS
CLE-HOPKINS    PTSUNNY   70  60  70 NW10      29.93S
CLE-LAKEFRONT  MOSUNNY   69  60  73 N6        29.91S
CUY CO. ARPT   PTSUNNY   72  59  64 NW12      29.92S
LORAIN-ELYRIA  PTSUNNY   70  60  70 NW9       29.92R
ASHTABULA      MOSUNNY   69  59  70 W8        29.92R
AKRON-CANTON   PTSUNNY   72  60  66 SW9       29.92F
WOOSTER        PTSUNNY   72  61  68 W9        29.93F
MANSFIELD      PTSUNNY   70  58  65 W6        29.94F
YOUNGSTOWN     PTSUNNY   71  59  65 W9        29.92R
$$

OHZ042-051>053-060>062-070>072-077>081-011900-
  SOUTHWEST OHIO

CITY           SKY/WX    TMP DP  RH WIND       PRES   REMARKS
CINC-COVINGTON PTSUNNY   78  63  59 NW6       29.95F
CINC-LUNKEN    MOSUNNY   77  64  64 SW7       29.94F
HAMILTON       SUNNY     80  61  52 MISG      29.95F
DAYTON         MOSUNNY   77  60  55 NW7       29.95F
WRIGHT-PAT AFB MOSUNNY   76  58  54 VRB5      29.94F
DAYTON GENERAL MOSUNNY   77  58  51 W7        29.94F
WILMINGTON     PTSUNNY   76  56  49 NW8       29.94F
$$

OHZ036-037-039>041-045>050-054>059-063>069-073>076-082>088-011900-
  CENTRAL AND SOUTHEAST OHIO

CITY           SKY/WX    TMP DP  RH WIND       PRES   REMARKS
COLUMBUS       MOSUNNY   76  60  57 W13G18    29.93F
OSU AIRPORT    PTSUNNY   73  59  61 W6        29.94F
BOLTON FIELD   MOSUNNY   73  61  64 W9G17     29.95F
RICKENBACK AFB SUNNY     76  58  52 NW10      29.93F
NEWARK         MOSUNNY   77  58  51 NW6       29.93F
MARION         MOSUNNY   73  59  61 NW8       29.93F
LANCASTER      MOSUNNY   76  60  57 W7        29.94F
ZANESVILLE     NOT AVBL
NEW PHILLY     CLOUDY    70  61  73 SW6       29.94F
$$



USA.gov is the U.S. government's official web portal to all federal, state and local government web resources and services.